Location: Koussan�
(15.2012°N, 12.5548°W)
Time: 02:09:38
(UTC+00:00)

H-2A R/B - Pass Details

Date: 20 October 2020
Orbit: 733 x 837 km, 98.2° (Epoch: 25 November)

Event Time Altitude Azimuth Distance (km) Brightness Sun altitude
Rises 20:48:09 0° 187° (S) 3,252 5.4 -34.7°
Enters shadow 20:49:56 - 193° (SSW) 2,590 4.9 -35.2°
Exits shadow 20:56:27 30° 286° (WNW) 1,408 3.7 -36.7°
Drops below altitude 10° 21:00:02 10° 324° (NW) 2,403 4.9 -37.6°
Sets 21:02:37 0° 334° (NNW) 3,349 5.6 -38.2°
